Wetterdaten: Dienstag, 15.12.2015
Datum Zeit Temp. A. Feuchte A. Luftdruck Regen Wind Richtung Richtung Sonnenschein ET UV Solar Taupunkt Windchill Windben Empfang
15.12.2015 00:00 3,2 C 90 % 1025,9 hPa 0,0 l/m 2,9 km/h (1 Bft) S 185 0 min 0,000 mm 0,0 UV-I 0 W/m 1,7 C 3,2 C 6,4 km/h (2 Bft) 99,15 %
15.12.2015 00:05 3,2 C 90 % 1025,9 hPa 0,0 l/m 0,6 km/h (0 Bft) S 185 0 min 0,000 mm 0,0 UV-I 0 W/m 1,7 C 3,2 C 3,2 km/h (1 Bft) 98,23 %
15.12.2015 00:10 3,2 C 90 % 1025,8 hPa 0,0 l/m 0,5 km/h (0 Bft) S 185 0 min 0,000 mm 0,0 UV-I 0 W/m 1,7 C 3,2 C 3,2 km/h (1 Bft) 99,15 %
15.12.2015 00:15 3,2 C 90 % 1025,7 hPa 0,0 l/m 0,9 km/h (0 Bft) S 185 0 min 0,000 mm 0,0 UV-I 0 W/m 1,7 C 3,2 C 3,2 km/h (1 Bft) 97,46 %
15.12.2015 00:20 3,1 C 90 % 1025,7 hPa 0,0 l/m 3,4 km/h (1 Bft) O-NO 67 0 min 0,000 mm 0,0 UV-I 0 W/m 1,6 C 3,1 C 8,0 km/h (2 Bft) 97,44 %
15.12.2015 00:25 3,1 C 90 % 1025,7 hPa 0,0 l/m 3,4 km/h (1 Bft) O 86 0 min 0,000 mm 0,0 UV-I 0 W/m 1,6 C 3,1 C 11,3 km/h (2 Bft) 98,31 %
15.12.2015 00:30 3,1 C 90 % 1025,7 hPa 0,0 l/m 0,8 km/h (0 Bft) O 86 0 min 0,000 mm 0,0 UV-I 0 W/m 1,6 C 3,1 C 3,2 km/h (1 Bft) 100,00 %
15.12.2015 00:35 3,1 C 91 % 1025,7 hPa 0,0 l/m 0,0 km/h (0 Bft) O 86 0 min 0,000 mm 0,0 UV-I 0 W/m 1,8 C 3,1 C 0,0 km/h (0 Bft) 98,15 %
15.12.2015 00:40 3,1 C 91 % 1025,8 hPa 0,0 l/m 0,3 km/h (0 Bft) O 87 0 min 0,000 mm 0,0 UV-I 0 W/m 1,8 C 3,1 C 1,6 km/h (1 Bft) 100,00 %
15.12.2015 00:45 3,0 C 91 % 1025,7 hPa 0,0 l/m 2,5 km/h (1 Bft) O 91 0 min 0,000 mm 0,0 UV-I 0 W/m 1,7 C 3,0 C 4,8 km/h (1 Bft) 97,46 %
15.12.2015 00:50 2,9 C 91 % 1025,7 hPa 0,0 l/m 1,1 km/h (1 Bft) O 91 0 min 0,000 mm 0,0 UV-I 0 W/m 1,6 C 2,9 C 3,2 km/h (1 Bft) 96,58 %
15.12.2015 00:55 2,9 C 91 % 1025,7 hPa 0,0 l/m 0,3 km/h (0 Bft) O 91 0 min 0,000 mm 0,0 UV-I 0 W/m 1,6 C 2,9 C 1,6 km/h (1 Bft) 98,35 %
15.12.2015 01:00 2,9 C 90 % 1025,8 hPa 0,0 l/m 0,0 km/h (0 Bft) O 91 0 min 0,000 mm 0,0 UV-I 0 W/m 1,4 C 2,9 C 0,0 km/h (0 Bft) 97,44 %
15.12.2015 01:05 2,9 C 91 % 1025,8 hPa 0,0 l/m 0,0 km/h (0 Bft) O 91 0 min 0,000 mm 0,0 UV-I 0 W/m 1,6 C 2,9 C 1,6 km/h (1 Bft) 96,61 %
15.12.2015 01:10 2,9 C 90 % 1025,8 hPa 0,0 l/m 0,2 km/h (0 Bft) O 91 0 min 0,000 mm 0,0 UV-I 0 W/m 1,4 C 2,9 C 1,6 km/h (1 Bft) 97,46 %
15.12.2015 01:15 2,9 C 91 % 1025,9 hPa 0,0 l/m 0,0 km/h (0 Bft) O 91 0 min 0,000 mm 0,0 UV-I 0 W/m 1,6 C 2,9 C 1,6 km/h (1 Bft) 95,83 %
15.12.2015 01:20 2,9 C 91 % 1026,0 hPa 0,0 l/m 0,9 km/h (0 Bft) O 86 0 min 0,000 mm 0,0 UV-I 0 W/m 1,6 C 2,9 C 3,2 km/h (1 Bft) 99,06 %
15.12.2015 01:25 2,8 C 92 % 1026,0 hPa 0,0 l/m 0,3 km/h (0 Bft) O 86 0 min 0,000 mm 0,0 UV-I 0 W/m 1,6 C 2,8 C 1,6 km/h (1 Bft) 98,32 %
15.12.2015 01:30 2,8 C 91 % 1026,0 hPa 0,0 l/m 0,1 km/h (0 Bft) O 86 0 min 0,000 mm 0,0 UV-I 0 W/m 1,5 C 2,8 C 1,6 km/h (1 Bft) 99,15 %
15.12.2015 01:35 2,8 C 92 % 1026,0 hPa 0,0 l/m 0,3 km/h (0 Bft) N 5 0 min 0,000 mm 0,0 UV-I 0 W/m 1,6 C 2,8 C 3,2 km/h (1 Bft) 99,17 %
15.12.2015 01:40 2,8 C 91 % 1026,0 hPa 0,0 l/m 1,4 km/h (1 Bft) NW 323 0 min 0,000 mm 0,0 UV-I 0 W/m 1,5 C 2,8 C 3,2 km/h (1 Bft) 100,00 %
15.12.2015 01:45 2,9 C 91 % 1026,0 hPa 0,0 l/m 0,6 km/h (0 Bft) NW 323 0 min 0,000 mm 0,0 UV-I 0 W/m 1,6 C 2,9 C 3,2 km/h (1 Bft) 100,00 %
15.12.2015 01:50 2,9 C 91 % 1026,0 hPa 0,0 l/m 0,2 km/h (0 Bft) NW 324 0 min 0,000 mm 0,0 UV-I 0 W/m 1,6 C 2,9 C 1,6 km/h (1 Bft) 98,31 %
15.12.2015 01:55 2,9 C 91 % 1026,0 hPa 0,0 l/m 0,0 km/h (0 Bft) NW 324 0 min 0,000 mm 0,0 UV-I 0 W/m 1,6 C 2,9 C 0,0 km/h (0 Bft) 96,58 %
15.12.2015 02:00 2,8 C 91 % 1026,0 hPa 0,0 l/m 0,0 km/h (0 Bft) NW 324 0 min 0,000 mm 0,0 UV-I 0 W/m 1,5 C 2,8 C 0,0 km/h (0 Bft) 99,15 %
15.12.2015 02:05 2,8 C 91 % 1026,0 hPa 0,0 l/m 0,0 km/h (0 Bft) NW 324 0 min 0,000 mm 0,0 UV-I 0 W/m 1,5 C 2,8 C 0,0 km/h (0 Bft) 100,00 %
15.12.2015 02:10 2,8 C 92 % 1026,1 hPa 0,0 l/m 0,0 km/h (0 Bft) NW 324 0 min 0,000 mm 0,0 UV-I 0 W/m 1,6 C 2,8 C 0,0 km/h (0 Bft) 99,15 %
15.12.2015 02:15 2,8 C 92 % 1026,2 hPa 0,0 l/m 0,0 km/h (0 Bft) NW 324 0 min 0,000 mm 0,0 UV-I 0 W/m 1,6 C 2,8 C 0,0 km/h (0 Bft) 99,15 %
15.12.2015 02:20 2,8 C 92 % 1026,2 hPa 0,0 l/m 0,0 km/h (0 Bft) NW 324 0 min 0,000 mm 0,0 UV-I 0 W/m 1,6 C 2,8 C 0,0 km/h (0 Bft) 100,00 %
15.12.2015 02:25 2,8 C 91 % 1026,2 hPa 0,0 l/m 0,0 km/h (0 Bft) NW 323 0 min 0,000 mm 0,0 UV-I 0 W/m 1,5 C 2,8 C 0,0 km/h (0 Bft) 100,00 %
15.12.2015 02:30 2,9 C 91 % 1026,2 hPa 0,0 l/m 0,0 km/h (0 Bft) NW 324 0 min 0,000 mm 0,0 UV-I 0 W/m 1,6 C 2,9 C 0,0 km/h (0 Bft) 96,69 %
15.12.2015 02:35 2,9 C 92 % 1026,3 hPa 0,0 l/m 1,3 km/h (1 Bft) NW 324 0 min 0,000 mm 0,0 UV-I 0 W/m 1,7 C 2,9 C 3,2 km/h (1 Bft) 97,44 %
15.12.2015 02:40 2,8 C 92 % 1026,3 hPa 0,0 l/m 0,7 km/h (0 Bft) NW 325 0 min 0,000 mm 0,0 UV-I 0 W/m 1,6 C 2,8 C 1,6 km/h (1 Bft) 99,15 %
15.12.2015 02:45 2,8 C 92 % 1026,3 hPa 0,0 l/m 0,1 km/h (0 Bft) NW 325 0 min 0,000 mm 0,0 UV-I 0 W/m 1,6 C 2,8 C 1,6 km/h (1 Bft) 98,29 %
15.12.2015 02:50 2,8 C 92 % 1026,3 hPa 0,0 l/m 0,1 km/h (0 Bft) NW 325 0 min 0,000 mm 0,0 UV-I 0 W/m 1,6 C 2,8 C 1,6 km/h (1 Bft) 97,46 %
15.12.2015 02:55 2,8 C 92 % 1026,3 hPa 0,0 l/m 0,1 km/h (0 Bft) NW 325 0 min 0,000 mm 0,0 UV-I 0 W/m 1,6 C 2,8 C 1,6 km/h (1 Bft) 96,23 %
15.12.2015 03:00 2,8 C 92 % 1026,4 hPa 0,0 l/m 0,5 km/h (0 Bft) W-NW 298 0 min 0,000 mm 0,0 UV-I 0 W/m 1,6 C 2,8 C 3,2 km/h (1 Bft) 94,07 %
15.12.2015 03:05 2,8 C 91 % 1026,4 hPa 0,0 l/m 0,7 km/h (0 Bft) W 271 0 min 0,000 mm 0,0 UV-I 0 W/m 1,5 C 2,8 C 3,2 km/h (1 Bft) 97,44 %
15.12.2015 03:10 2,8 C 91 % 1026,4 hPa 0,0 l/m 1,1 km/h (1 Bft) W 269 0 min 0,000 mm 0,0 UV-I 0 W/m 1,5 C 2,8 C 3,2 km/h (1 Bft) 96,69 %
15.12.2015 03:15 2,8 C 92 % 1026,5 hPa 0,0 l/m 2,0 km/h (1 Bft) W 275 0 min 0,000 mm 0,0 UV-I 0 W/m 1,6 C 2,8 C 3,2 km/h (1 Bft) 95,00 %
15.12.2015 03:20 2,8 C 92 % 1026,4 hPa 0,0 l/m 2,3 km/h (1 Bft) W 275 0 min 0,000 mm 0,0 UV-I 0 W/m 1,6 C 2,8 C 4,8 km/h (1 Bft) 97,25 %
15.12.2015 03:25 2,8 C 91 % 1026,4 hPa 0,0 l/m 1,2 km/h (1 Bft) W 275 0 min 0,000 mm 0,0 UV-I 0 W/m 1,5 C 2,8 C 3,2 km/h (1 Bft) 99,15 %
15.12.2015 03:30 2,8 C 91 % 1026,4 hPa 0,0 l/m 1,6 km/h (1 Bft) W-SW 238 0 min 0,000 mm 0,0 UV-I 0 W/m 1,5 C 2,8 C 4,8 km/h (1 Bft) 98,33 %
15.12.2015 03:35 2,8 C 92 % 1026,3 hPa 0,0 l/m 1,5 km/h (1 Bft) W-SW 239 0 min 0,000 mm 0,0 UV-I 0 W/m 1,6 C 2,8 C 4,8 km/h (1 Bft) 99,15 %
15.12.2015 03:40 2,8 C 91 % 1026,3 hPa 0,0 l/m 3,0 km/h (1 Bft) S 186 0 min 0,000 mm 0,0 UV-I 0 W/m 1,5 C 2,8 C 4,8 km/h (1 Bft) 98,33 %
15.12.2015 03:45 2,8 C 91 % 1026,2 hPa 0,0 l/m 2,5 km/h (1 Bft) S 186 0 min 0,000 mm 0,0 UV-I 0 W/m 1,5 C 2,8 C 4,8 km/h (1 Bft) 100,00 %
15.12.2015 03:50 2,8 C 91 % 1026,2 hPa 0,0 l/m 1,1 km/h (1 Bft) S 186 0 min 0,000 mm 0,0 UV-I 0 W/m 1,5 C 2,8 C 3,2 km/h (1 Bft) 98,31 %
15.12.2015 03:55 2,8 C 91 % 1026,3 hPa 0,0 l/m 1,3 km/h (1 Bft) S 186 0 min 0,000 mm 0,0 UV-I 0 W/m 1,5 C 2,8 C 3,2 km/h (1 Bft) 99,07 %
15.12.2015 04:00 2,8 C 92 % 1026,3 hPa 0,0 l/m 0,8 km/h (0 Bft) S 186 0 min 0,000 mm 0,0 UV-I 0 W/m 1,6 C 2,8 C 3,2 km/h (1 Bft) 99,15 %
15.12.2015 04:05 2,8 C 92 % 1026,2 hPa 0,0 l/m 1,2 km/h (1 Bft) S 186 0 min 0,000 mm 0,0 UV-I 0 W/m 1,6 C 2,8 C 3,2 km/h (1 Bft) 100,00 %
15.12.2015 04:10 2,8 C 92 % 1026,2 hPa 0,0 l/m 0,7 km/h (0 Bft) S 186 0 min 0,000 mm 0,0 UV-I 0 W/m 1,6 C 2,8 C 3,2 km/h (1 Bft) 99,17 %
15.12.2015 04:15 2,7 C 92 % 1026,2 hPa 0,0 l/m 3,0 km/h (1 Bft) S-SO 165 0 min 0,000 mm 0,0 UV-I 0 W/m 1,5 C 2,7 C 8,0 km/h (2 Bft) 97,17 %
15.12.2015 04:20 2,6 C 93 % 1026,1 hPa 0,0 l/m 3,6 km/h (1 Bft) S 181 0 min 0,000 mm 0,0 UV-I 0 W/m 1,6 C 2,6 C 6,4 km/h (2 Bft) 99,17 %
15.12.2015 04:25 2,6 C 93 % 1026,1 hPa 0,0 l/m 3,2 km/h (1 Bft) S 180 0 min 0,000 mm 0,0 UV-I 0 W/m 1,6 C 2,6 C 6,4 km/h (2 Bft) 98,33 %
15.12.2015 04:30 2,5 C 93 % 1026,2 hPa 0,0 l/m 3,6 km/h (1 Bft) S 173 0 min 0,000 mm 0,0 UV-I 0 W/m 1,5 C 2,5 C 6,4 km/h (2 Bft) 100,00 %
15.12.2015 04:35 2,4 C 93 % 1026,1 hPa 0,0 l/m 0,6 km/h (0 Bft) S 175 0 min 0,000 mm 0,0 UV-I 0 W/m 1,4 C 2,4 C 4,8 km/h (1 Bft) 96,67 %
15.12.2015 04:40 2,4 C 93 % 1026,1 hPa 0,0 l/m 2,4 km/h (1 Bft) S-SO 165 0 min 0,000 mm 0,0 UV-I 0 W/m 1,4 C 2,4 C 8,0 km/h (2 Bft) 100,00 %
15.12.2015 04:45 2,4 C 93 % 1026,1 hPa 0,0 l/m 1,3 km/h (1 Bft) S-SO 165 0 min 0,000 mm 0,0 UV-I 0 W/m 1,4 C 2,4 C 6,4 km/h (2 Bft) 99,15 %
15.12.2015 04:50 2,4 C 93 % 1026,1 hPa 0,0 l/m 1,7 km/h (1 Bft) S-SO 164 0 min 0,000 mm 0,0 UV-I 0 W/m 1,4 C 2,4 C 6,4 km/h (2 Bft) 97,30 %
15.12.2015 04:55 2,4 C 93 % 1026,1 hPa 0,0 l/m 2,0 km/h (1 Bft) S-SO 157 0 min 0,000 mm 0,0 UV-I 0 W/m 1,4 C 2,4 C 6,4 km/h (2 Bft) 96,61 %
15.12.2015 05:00 2,4 C 94 % 1026,1 hPa 0,0 l/m 2,1 km/h (1 Bft) SO 146 0 min 0,000 mm 0,0 UV-I 0 W/m 1,5 C 2,4 C 4,8 km/h (1 Bft) 96,61 %
15.12.2015 05:05 2,3 C 93 % 1026,1 hPa 0,0 l/m 2,3 km/h (1 Bft) SO 130 0 min 0,000 mm 0,0 UV-I 0 W/m 1,3 C 2,3 C 6,4 km/h (2 Bft) 97,44 %
15.12.2015 05:10 2,3 C 93 % 1026,0 hPa 0,0 l/m 2,4 km/h (1 Bft) S-SO 150 0 min 0,000 mm 0,0 UV-I 0 W/m 1,3 C 2,3 C 6,4 km/h (2 Bft) 96,61 %
15.12.2015 05:15 2,2 C 94 % 1026,0 hPa 0,0 l/m 3,4 km/h (1 Bft) SO 145 0 min 0,000 mm 0,0 UV-I 0 W/m 1,3 C 2,2 C 6,4 km/h (2 Bft) 95,83 %
15.12.2015 05:20 2,2 C 94 % 1025,9 hPa 0,0 l/m 4,7 km/h (1 Bft) SO 144 0 min 0,000 mm 0,0 UV-I 0 W/m 1,3 C 2,2 C 8,0 km/h (2 Bft) 96,69 %
15.12.2015 05:25 2,2 C 94 % 1025,9 hPa 0,0 l/m 3,9 km/h (1 Bft) O-SO 115 0 min 0,000 mm 0,0 UV-I 0 W/m 1,3 C 2,2 C 8,0 km/h (2 Bft) 98,31 %
15.12.2015 05:30 2,2 C 94 % 1025,9 hPa 0,0 l/m 2,2 km/h (1 Bft) S-SO 161 0 min 0,000 mm 0,0 UV-I 0 W/m 1,3 C 2,2 C 6,4 km/h (2 Bft) 97,44 %
15.12.2015 05:35 2,2 C 94 % 1025,9 hPa 0,0 l/m 1,3 km/h (1 Bft) S-SO 161 0 min 0,000 mm 0,0 UV-I 0 W/m 1,3 C 2,2 C 6,4 km/h (2 Bft) 98,17 %
15.12.2015 05:40 2,2 C 94 % 1025,7 hPa 0,0 l/m 3,4 km/h (1 Bft) O-SO 113 0 min 0,000 mm 0,0 UV-I 0 W/m 1,3 C 2,2 C 6,4 km/h (2 Bft) 98,33 %
15.12.2015 05:45 2,2 C 94 % 1025,9 hPa 0,0 l/m 3,2 km/h (1 Bft) SO 125 0 min 0,000 mm 0,0 UV-I 0 W/m 1,3 C 2,2 C 6,4 km/h (2 Bft) 99,15 %
15.12.2015 05:50 2,2 C 94 % 1026,0 hPa 0,0 l/m 2,1 km/h (1 Bft) SO 125 0 min 0,000 mm 0,0 UV-I 0 W/m 1,3 C 2,2 C 4,8 km/h (1 Bft) 99,17 %
15.12.2015 05:55 2,2 C 94 % 1026,0 hPa 0,0 l/m 1,2 km/h (1 Bft) SO 136 0 min 0,000 mm 0,0 UV-I 0 W/m 1,3 C 2,2 C 3,2 km/h (1 Bft) 99,15 %
15.12.2015 06:00 2,2 C 94 % 1026,2 hPa 0,0 l/m 3,0 km/h (1 Bft) W-SW 240 0 min 0,000 mm 0,0 UV-I 0 W/m 1,3 C 2,2 C 6,4 km/h (2 Bft) 100,00 %
15.12.2015 06:05 2,2 C 94 % 1026,2 hPa 0,0 l/m 1,8 km/h (1 Bft) S-SW 194 0 min 0,000 mm 0,0 UV-I 0 W/m 1,3 C 2,2 C 6,4 km/h (2 Bft) 100,00 %
15.12.2015 06:10 2,2 C 94 % 1026,2 hPa 0,0 l/m 1,8 km/h (1 Bft) S 173 0 min 0,000 mm 0,0 UV-I 0 W/m 1,3 C 2,2 C 4,8 km/h (1 Bft) 97,44 %
15.12.2015 06:15 2,2 C 94 % 1026,1 hPa 0,0 l/m 3,8 km/h (1 Bft) O 97 0 min 0,000 mm 0,0 UV-I 0 W/m 1,3 C 2,2 C 6,4 km/h (2 Bft) 97,52 %
15.12.2015 06:20 2,2 C 94 % 1026,1 hPa 0,0 l/m 3,8 km/h (1 Bft) SO 136 0 min 0,000 mm 0,0 UV-I 0 W/m 1,3 C 2,2 C 9,7 km/h (2 Bft) 100,00 %
15.12.2015 06:25 2,2 C 94 % 1026,1 hPa 0,0 l/m 2,1 km/h (1 Bft) SO 128 0 min 0,000 mm 0,0 UV-I 0 W/m 1,3 C 2,2 C 4,8 km/h (1 Bft) 99,15 %
15.12.2015 06:30 2,1 C 94 % 1026,1 hPa 0,0 l/m 1,9 km/h (1 Bft) SO 126 0 min 0,000 mm 0,0 UV-I 0 W/m 1,2 C 2,1 C 4,8 km/h (1 Bft) 99,15 %
15.12.2015 06:35 2,1 C 94 % 1026,2 hPa 0,0 l/m 3,6 km/h (1 Bft) S-SO 161 0 min 0,000 mm 0,0 UV-I 0 W/m 1,2 C 2,1 C 6,4 km/h (2 Bft) 96,75 %
15.12.2015 06:40 2,1 C 94 % 1026,1 hPa 0,0 l/m 2,7 km/h (1 Bft) O-SO 123 0 min 0,000 mm 0,0 UV-I 0 W/m 1,2 C 2,1 C 6,4 km/h (2 Bft) 100,00 %
15.12.2015 06:45 2,1 C 94 % 1026,0 hPa 0,0 l/m 5,4 km/h (1 Bft) SO 126 0 min 0,000 mm 0,0 UV-I 0 W/m 1,2 C 2,1 C 8,0 km/h (2 Bft) 99,15 %
15.12.2015 06:50 2,1 C 94 % 1026,0 hPa 0,0 l/m 6,3 km/h (2 Bft) O-SO 115 0 min 0,000 mm 0,0 UV-I 0 W/m 1,2 C 2,1 C 11,3 km/h (2 Bft) 96,40 %
15.12.2015 06:55 2,0 C 94 % 1026,1 hPa 0,0 l/m 2,9 km/h (1 Bft) SO 136 0 min 0,000 mm 0,0 UV-I 0 W/m 1,1 C 2,0 C 6,4 km/h (2 Bft) 96,61 %
15.12.2015 07:00 2,1 C 94 % 1026,0 hPa 0,0 l/m 1,3 km/h (1 Bft) S-SO 153 0 min 0,000 mm 0,0 UV-I 0 W/m 1,2 C 2,1 C 3,2 km/h (1 Bft) 97,46 %
15.12.2015 07:05 2,1 C 95 % 1026,0 hPa 0,0 l/m 5,1 km/h (1 Bft) SO 130 0 min 0,000 mm 0,0 UV-I 0 W/m 1,4 C 2,1 C 9,7 km/h (2 Bft) 95,73 %
15.12.2015 07:10 2,1 C 95 % 1025,9 hPa 0,0 l/m 4,7 km/h (1 Bft) SO 128 0 min 0,000 mm 0,0 UV-I 0 W/m 1,4 C 2,1 C 9,7 km/h (2 Bft) 96,61 %
15.12.2015 07:15 2,1 C 95 % 1025,6 hPa 0,0 l/m 8,4 km/h (2 Bft) SO 125 0 min 0,000 mm 0,0 UV-I 0 W/m 1,4 C 0,2 C 14,5 km/h (3 Bft) 98,17 %
15.12.2015 07:20 2,1 C 95 % 1025,9 hPa 0,0 l/m 5,3 km/h (1 Bft) S-SO 158 0 min 0,000 mm 0,0 UV-I 0 W/m 1,4 C 2,1 C 12,9 km/h (3 Bft) 96,83 %
15.12.2015 07:25 2,1 C 95 % 1025,7 hPa 0,0 l/m 2,5 km/h (1 Bft) S 169 0 min 0,000 mm 0,0 UV-I 0 W/m 1,4 C 2,1 C 6,4 km/h (2 Bft) 99,09 %
15.12.2015 07:30 2,1 C 95 % 1025,8 hPa 0,0 l/m 2,4 km/h (1 Bft) O 90 0 min 0,000 mm 0,0 UV-I 0 W/m 1,4 C 2,1 C 6,4 km/h (2 Bft) 95,83 %
15.12.2015 07:35 2,1 C 95 % 1025,9 hPa 0,0 l/m 2,3 km/h (1 Bft) O-SO 121 0 min 0,000 mm 0,0 UV-I 0 W/m 1,4 C 2,1 C 6,4 km/h (2 Bft) 99,15 %
15.12.2015 07:40 2,1 C 95 % 1025,9 hPa 0,0 l/m 1,1 km/h (1 Bft) S-SO 150 0 min 0,000 mm 0,0 UV-I 0 W/m 1,4 C 2,1 C 3,2 km/h (1 Bft) 98,33 %
15.12.2015 07:45 2,1 C 95 % 1025,9 hPa 0,0 l/m 2,8 km/h (1 Bft) S-SO 168 0 min 0,000 mm 0,0 UV-I 0 W/m 1,4 C 2,1 C 8,0 km/h (2 Bft) 98,31 %
15.12.2015 07:50 2,1 C 95 % 1025,8 hPa 0,0 l/m 2,2 km/h (1 Bft) S-SO 147 0 min 0,000 mm 0,0 UV-I 3 W/m 1,4 C 2,1 C 6,4 km/h (2 Bft) 100,00 %
15.12.2015 07:55 2,1 C 95 % 1025,9 hPa 0,0 l/m 3,1 km/h (1 Bft) O 89 0 min 0,000 mm 0,0 UV-I 6 W/m 1,4 C 2,1 C 4,8 km/h (1 Bft) 99,15 %
15.12.2015 08:00 2,1 C 95 % 1025,9 hPa 0,0 l/m 2,0 km/h (1 Bft) O-SO 123 0 min 0,000 mm 0,0 UV-I 8 W/m 1,4 C 2,1 C 4,8 km/h (1 Bft) 99,17 %
15.12.2015 08:05 2,1 C 95 % 1025,9 hPa 0,0 l/m 1,9 km/h (1 Bft) SO 128 0 min 0,000 mm 0,0 UV-I 11 W/m 1,4 C 2,1 C 4,8 km/h (1 Bft) 100,00 %
15.12.2015 08:10 2,1 C 95 % 1025,9 hPa 0,0 l/m 1,2 km/h (1 Bft) SO 128 0 min 0,000 mm 0,0 UV-I 15 W/m 1,4 C 2,1 C 3,2 km/h (1 Bft) 100,00 %
15.12.2015 08:15 2,2 C 95 % 1025,9 hPa 0,0 l/m 2,8 km/h (1 Bft) O-SO 107 0 min 0,000 mm 0,0 UV-I 19 W/m 1,5 C 2,2 C 4,8 km/h (1 Bft) 98,31 %
15.12.2015 08:20 2,2 C 95 % 1026,0 hPa 0,0 l/m 2,4 km/h (1 Bft) O-NO 69 0 min 0,000 mm 0,0 UV-I 23 W/m 1,5 C 2,2 C 4,8 km/h (1 Bft) 99,17 %
15.12.2015 08:25 2,2 C 95 % 1026,0 hPa 0,0 l/m 0,4 km/h (0 Bft) O-NO 69 0 min 0,000 mm 0,0 UV-I 26 W/m 1,5 C 2,2 C 1,6 km/h (1 Bft) 100,00 %
15.12.2015 08:30 2,2 C 95 % 1026,0 hPa 0,0 l/m 0,2 km/h (0 Bft) O-NO 69 0 min 0,000 mm 0,0 UV-I 30 W/m 1,5 C 2,2 C 1,6 km/h (1 Bft) 100,00 %
15.12.2015 08:35 2,3 C 95 % 1026,1 hPa 0,0 l/m 0,7 km/h (0 Bft) O 83 0 min 0,000 mm 0,0 UV-I 40 W/m 1,6 C 2,3 C 3,2 km/h (1 Bft) 98,29 %
15.12.2015 08:40 2,3 C 94 % 1026,1 hPa 0,0 l/m 0,8 km/h (0 Bft) O 83 0 min 0,000 mm 0,0 UV-I 50 W/m 1,4 C 2,3 C 3,2 km/h (1 Bft) 98,31 %
15.12.2015 08:45 2,3 C 94 % 1026,1 hPa 0,0 l/m 1,7 km/h (1 Bft) O 83 0 min 0,000 mm 0,0 UV-I 54 W/m 1,4 C 2,3 C 3,2 km/h (1 Bft) 99,08 %
15.12.2015 08:50 2,4 C 94 % 1026,1 hPa 0,0 l/m 0,4 km/h (0 Bft) O 83 0 min 0,000 mm 0,0 UV-I 59 W/m 1,5 C 2,4 C 1,6 km/h (1 Bft) 98,33 %
15.12.2015 08:55 2,4 C 94 % 1026,2 hPa 0,0 l/m 0,1 km/h (0 Bft) O 83 0 min 0,000 mm 0,0 UV-I 70 W/m 1,5 C 2,4 C 1,6 km/h (1 Bft) 96,69 %
15.12.2015 09:00 2,5 C 94 % 1026,3 hPa 0,0 l/m 0,3 km/h (0 Bft) O 83 0 min 0,025 mm 0,0 UV-I 63 W/m 1,6 C 2,5 C 1,6 km/h (1 Bft) 96,43 %
15.12.2015 09:05 2,5 C 94 % 1026,3 hPa 0,0 l/m 0,0 km/h (0 Bft) O 83 0 min 0,000 mm 0,0 UV-I 71 W/m 1,6 C 2,5 C 1,6 km/h (1 Bft) 95,00 %
15.12.2015 09:10 2,6 C 94 % 1026,4 hPa 0,0 l/m 0,4 km/h (0 Bft) O 83 0 min 0,000 mm 0,0 UV-I 83 W/m 1,7 C 2,6 C 3,2 km/h (1 Bft) 97,50 %
15.12.2015 09:15 2,6 C 94 % 1026,4 hPa 0,0 l/m 0,0 km/h (0 Bft) O 83 0 min 0,000 mm 0,0 UV-I 95 W/m 1,7 C 2,6 C 1,6 km/h (1 Bft) 97,25 %
15.12.2015 09:20 2,7 C 93 % 1026,4 hPa 0,0 l/m 0,4 km/h (0 Bft) O-SO 114 5 min 0,000 mm 0,0 UV-I 101 W/m 1,7 C 2,7 C 3,2 km/h (1 Bft) 96,72 %
15.12.2015 09:25 2,7 C 93 % 1026,5 hPa 0,0 l/m 1,2 km/h (1 Bft) S 175 5 min 0,000 mm 0,0 UV-I 109 W/m 1,7 C 2,7 C 3,2 km/h (1 Bft) 96,61 %
15.12.2015 09:30 2,8 C 93 % 1026,7 hPa 0,0 l/m 0,2 km/h (0 Bft) S 175 0 min 0,000 mm 0,0 UV-I 109 W/m 1,8 C 2,8 C 1,6 km/h (1 Bft) 99,18 %
15.12.2015 09:35 2,8 C 93 % 1026,8 hPa 0,0 l/m 1,0 km/h (0 Bft) S 181 0 min 0,000 mm 0,0 UV-I 111 W/m 1,8 C 2,8 C 3,2 km/h (1 Bft) 98,17 %
15.12.2015 09:40 2,9 C 93 % 1026,7 hPa 0,0 l/m 2,9 km/h (1 Bft) SW 235 0 min 0,000 mm 0,0 UV-I 100 W/m 1,9 C 2,9 C 4,8 km/h (1 Bft) 99,17 %
15.12.2015 09:45 2,9 C 93 % 1026,5 hPa 0,0 l/m 0,7 km/h (0 Bft) SW 235 0 min 0,000 mm 0,0 UV-I 105 W/m 1,9 C 2,9 C 3,2 km/h (1 Bft) 96,30 %
15.12.2015 09:50 3,0 C 93 % 1026,7 hPa 0,0 l/m 2,0 km/h (1 Bft) SW 233 0 min 0,000 mm 0,0 UV-I 102 W/m 2,0 C 3,0 C 3,2 km/h (1 Bft) 99,17 %
15.12.2015 09:55 3,1 C 93 % 1026,8 hPa 0,0 l/m 2,5 km/h (1 Bft) S-SW 195 0 min 0,000 mm 0,0 UV-I 88 W/m 2,1 C 3,1 C 4,8 km/h (1 Bft) 100,00 %
15.12.2015 10:00 3,1 C 92 % 1026,8 hPa 0,0 l/m 1,9 km/h (1 Bft) W 263 0 min 0,026 mm 0,0 UV-I 83 W/m 1,9 C 3,1 C 4,8 km/h (1 Bft) 99,19 %
15.12.2015 10:05 3,1 C 92 % 1026,8 hPa 0,0 l/m 0,2 km/h (0 Bft) W 263 0 min 0,000 mm 0,0 UV-I 92 W/m 1,9 C 3,1 C 1,6 km/h (1 Bft) 99,15 %
15.12.2015 10:10 3,2 C 92 % 1026,9 hPa 0,0 l/m 0,6 km/h (0 Bft) W-SW 256 0 min 0,000 mm 0,0 UV-I 88 W/m 2,0 C 3,2 C 3,2 km/h (1 Bft) 97,44 %
15.12.2015 10:15 3,2 C 92 % 1027,0 hPa 0,0 l/m 0,0 km/h (0 Bft) W-SW 256 0 min 0,000 mm 0,0 UV-I 86 W/m 2,0 C 3,2 C 0,0 km/h (0 Bft) 98,31 %
15.12.2015 10:20 3,3 C 91 % 1027,0 hPa 0,0 l/m 0,6 km/h (0 Bft) W-SW 256 0 min 0,000 mm 0,0 UV-I 77 W/m 2,0 C 3,3 C 3,2 km/h (1 Bft) 95,73 %
15.12.2015 10:25 3,3 C 92 % 1027,1 hPa 0,0 l/m 1,6 km/h (1 Bft) W-SW 247 0 min 0,000 mm 0,0 UV-I 61 W/m 2,1 C 3,3 C 4,8 km/h (1 Bft) 100,00 %
15.12.2015 10:30 3,3 C 92 % 1027,2 hPa 0,0 l/m 1,6 km/h (1 Bft) W-SW 247 0 min 0,000 mm 0,0 UV-I 60 W/m 2,1 C 3,3 C 4,8 km/h (1 Bft) 100,00 %
15.12.2015 10:35 3,3 C 91 % 1027,1 hPa 0,0 l/m 3,2 km/h (1 Bft) S-SW 202 0 min 0,000 mm 0,0 UV-I 82 W/m 2,0 C 3,3 C 4,8 km/h (1 Bft) 99,12 %
15.12.2015 10:40 3,4 C 91 % 1027,1 hPa 0,0 l/m 1,6 km/h (1 Bft) S-SW 202 0 min 0,000 mm 0,0 UV-I 106 W/m 2,1 C 3,4 C 4,8 km/h (1 Bft) 100,00 %
15.12.2015 10:45 3,4 C 91 % 1027,1 hPa 0,0 l/m 1,6 km/h (1 Bft) S-SW 202 0 min 0,000 mm 0,0 UV-I 121 W/m 2,1 C 3,4 C 3,2 km/h (1 Bft) 100,00 %
15.12.2015 10:50 3,6 C 91 % 1027,1 hPa 0,0 l/m 3,2 km/h (1 Bft) W-SW 237 0 min 0,000 mm 0,0 UV-I 121 W/m 2,3 C 3,6 C 4,8 km/h (1 Bft) 91,49 %
15.12.2015 10:55 3,6 C 90 % 1027,1 hPa 0,0 l/m 2,0 km/h (1 Bft) W-SW 237 0 min 0,000 mm 0,0 UV-I 122 W/m 2,1 C 3,6 C 4,8 km/h (1 Bft) 97,52 %
15.12.2015 11:00 3,7 C 90 % 1027,1 hPa 0,0 l/m 2,2 km/h (1 Bft) W-NW 285 0 min 0,025 mm 0,0 UV-I 123 W/m 2,2 C 3,7 C 4,8 km/h (1 Bft) 95,87 %
15.12.2015 11:05 3,7 C 91 % 1026,9 hPa 0,0 l/m 0,4 km/h (0 Bft) S-SW 211 0 min 0,000 mm 0,3 UV-I 115 W/m 2,4 C 3,7 C 3,2 km/h (1 Bft) 95,61 %
15.12.2015 11:10 3,6 C 90 % 1026,9 hPa 0,0 l/m 1,9 km/h (1 Bft) S-SW 209 0 min 0,000 mm 0,5 UV-I 149 W/m 2,1 C 3,6 C 4,8 km/h (1 Bft) 98,21 %
15.12.2015 11:15 3,8 C 90 % 1026,9 hPa 0,0 l/m 1,0 km/h (0 Bft) SW 218 0 min 0,000 mm 0,5 UV-I 168 W/m 2,3 C 3,8 C 3,2 km/h (1 Bft) 96,75 %
15.12.2015 11:20 3,9 C 91 % 1026,9 hPa 0,0 l/m 2,5 km/h (1 Bft) W-SW 252 0 min 0,000 mm 0,5 UV-I 174 W/m 2,6 C 3,9 C 4,8 km/h (1 Bft) 96,67 %
15.12.2015 11:25 4,0 C 89 % 1026,8 hPa 0,0 l/m 3,2 km/h (1 Bft) W-SW 247 5 min 0,000 mm 0,5 UV-I 177 W/m 2,4 C 4,0 C 6,4 km/h (2 Bft) 97,37 %
15.12.2015 11:30 3,9 C 89 % 1026,8 hPa 0,0 l/m 1,6 km/h (1 Bft) S 180 0 min 0,000 mm 0,5 UV-I 164 W/m 2,3 C 3,9 C 3,2 km/h (1 Bft) 97,37 %
15.12.2015 11:35 3,9 C 89 % 1026,8 hPa 0,0 l/m 3,8 km/h (1 Bft) S 180 0 min 0,000 mm 0,1 UV-I 144 W/m 2,3 C 3,9 C 4,8 km/h (1 Bft) 99,03 %
15.12.2015 11:40 4,0 C 89 % 1026,8 hPa 0,0 l/m 3,2 km/h (1 Bft) S-SW 202 0 min 0,000 mm 0,0 UV-I 130 W/m 2,4 C 4,0 C 6,4 km/h (2 Bft) 96,49 %
15.12.2015 11:45 4,1 C 88 % 1026,7 hPa 0,0 l/m 1,6 km/h (1 Bft) S 180 0 min 0,000 mm 0,0 UV-I 127 W/m 2,3 C 4,1 C 6,4 km/h (2 Bft) 97,37 %
15.12.2015 11:50 4,1 C 88 % 1026,7 hPa 0,0 l/m 4,8 km/h (1 Bft) S-SW 202 0 min 0,000 mm 0,0 UV-I 132 W/m 2,3 C 4,1 C 9,7 km/h (2 Bft) 98,25 %
15.12.2015 11:55 4,2 C 89 % 1026,7 hPa 0,0 l/m 4,8 km/h (1 Bft) S 180 0 min 0,000 mm 0,5 UV-I 141 W/m 2,6 C 4,2 C 8,0 km/h (2 Bft) 98,25 %
15.12.2015 12:00 4,2 C 89 % 1026,7 hPa 0,0 l/m 1,6 km/h (1 Bft) SW 225 0 min 0,051 mm 0,5 UV-I 158 W/m 2,6 C 4,2 C 6,4 km/h (2 Bft) 100,00 %
15.12.2015 12:05 4,3 C 89 % 1026,7 hPa 0,0 l/m 1,6 km/h (1 Bft) S-SW 202 0 min 0,000 mm 0,5 UV-I 176 W/m 2,7 C 4,3 C 4,8 km/h (1 Bft) 99,12 %
15.12.2015 12:10 4,3 C 89 % 1026,6 hPa 0,0 l/m 0,0 km/h (0 Bft) S 180 0 min 0,000 mm 0,5 UV-I 177 W/m 2,7 C 4,3 C 3,2 km/h (1 Bft) 100,00 %
15.12.2015 12:15 4,4 C 89 % 1026,6 hPa 0,0 l/m 1,6 km/h (1 Bft) S-SW 202 5 min 0,000 mm 0,5 UV-I 191 W/m 2,7 C 4,4 C 6,4 km/h (2 Bft) 99,12 %
15.12.2015 12:20 4,5 C 88 % 1026,6 hPa 0,0 l/m 1,6 km/h (1 Bft) S 180 5 min 0,000 mm 0,5 UV-I 191 W/m 2,7 C 4,5 C 4,8 km/h (1 Bft) 99,12 %
15.12.2015 12:25 4,7 C 88 % 1026,6 hPa 0,0 l/m 1,6 km/h (1 Bft) W-SW 247 5 min 0,000 mm 0,4 UV-I 181 W/m 2,9 C 4,7 C 3,2 km/h (1 Bft) 100,00 %
15.12.2015 12:30 4,7 C 87 % 1026,6 hPa 0,0 l/m 1,6 km/h (1 Bft) SW 225 0 min 0,000 mm 0,0 UV-I 149 W/m 2,7 C 4,7 C 4,8 km/h (1 Bft) 100,00 %
15.12.2015 12:35 4,7 C 88 % 1026,5 hPa 0,0 l/m 1,6 km/h (1 Bft) SW 225 0 min 0,000 mm 0,0 UV-I 126 W/m 2,9 C 4,7 C 3,2 km/h (1 Bft) 98,25 %
15.12.2015 12:40 4,7 C 87 % 1026,5 hPa 0,0 l/m 3,2 km/h (1 Bft) SW 225 0 min 0,000 mm 0,0 UV-I 103 W/m 2,7 C 4,7 C 6,4 km/h (2 Bft) 100,00 %
15.12.2015 12:45 4,7 C 87 % 1026,5 hPa 0,0 l/m 1,6 km/h (1 Bft) S-SW 202 0 min 0,000 mm 0,0 UV-I 102 W/m 2,7 C 4,7 C 4,8 km/h (1 Bft) 100,00 %
15.12.2015 12:50 4,7 C 87 % 1026,5 hPa 0,0 l/m 3,2 km/h (1 Bft) S-SW 202 0 min 0,000 mm 0,0 UV-I 106 W/m 2,7 C 4,7 C 4,8 km/h (1 Bft) 100,00 %
15.12.2015 12:55 4,7 C 87 % 1026,4 hPa 0,0 l/m 1,6 km/h (1 Bft) S-SW 202 0 min 0,000 mm 0,0 UV-I 110 W/m 2,7 C 4,7 C 4,8 km/h (1 Bft) 100,00 %
15.12.2015 13:00 4,7 C 87 % 1026,3 hPa 0,0 l/m 4,8 km/h (1 Bft) S-SW 202 0 min 0,051 mm 0,0 UV-I 113 W/m 2,7 C 4,7 C 6,4 km/h (2 Bft) 100,00 %
15.12.2015 13:05 4,8 C 87 % 1026,3 hPa 0,0 l/m 3,2 km/h (1 Bft) S 180 0 min 0,000 mm 0,0 UV-I 119 W/m 2,8 C 4,8 C 4,8 km/h (1 Bft) 99,12 %
15.12.2015 13:10 4,8 C 87 % 1026,3 hPa 0,0 l/m 1,6 km/h (1 Bft) S 180 0 min 0,000 mm 0,0 UV-I 123 W/m 2,8 C 4,8 C 6,4 km/h (2 Bft) 100,00 %
15.12.2015 13:15 4,9 C 86 % 1026,3 hPa 0,0 l/m 2,8 km/h (1 Bft) S-SW 197 0 min 0,000 mm 0,0 UV-I 133 W/m 2,8 C 4,9 C 4,8 km/h (1 Bft) 98,38 %
15.12.2015 13:20 5,1 C 86 % 1026,3 hPa 0,0 l/m 2,9 km/h (1 Bft) S-SW 208 5 min 0,000 mm 0,0 UV-I 169 W/m 3,0 C 5,1 C 4,8 km/h (1 Bft) 99,17 %
15.12.2015 13:25 5,1 C 85 % 1026,3 hPa 0,0 l/m 1,8 km/h (1 Bft) SW 221 0 min 0,000 mm 0,0 UV-I 151 W/m 2,8 C 5,1 C 4,8 km/h (1 Bft) 99,06 %
15.12.2015 13:30 5,3 C 87 % 1026,2 hPa 0,0 l/m 0,8 km/h (0 Bft) W-NW 283 0 min 0,000 mm 0,0 UV-I 128 W/m 3,3 C 5,3 C 3,2 km/h (1 Bft) 99,18 %
15.12.2015 13:35 5,3 C 86 % 1026,2 hPa 0,0 l/m 0,6 km/h (0 Bft) W-NW 286 0 min 0,000 mm 0,0 UV-I 95 W/m 3,2 C 5,3 C 3,2 km/h (1 Bft) 100,00 %
15.12.2015 13:40 5,3 C 85 % 1026,2 hPa 0,0 l/m 1,4 km/h (1 Bft) NW 308 0 min 0,000 mm 0,0 UV-I 76 W/m 3,0 C 5,3 C 4,8 km/h (1 Bft) 100,00 %
15.12.2015 13:45 5,2 C 87 % 1026,1 hPa 0,0 l/m 0,4 km/h (0 Bft) NW 308 0 min 0,000 mm 0,0 UV-I 72 W/m 3,2 C 5,2 C 3,2 km/h (1 Bft) 100,00 %
15.12.2015 13:50 5,2 C 86 % 1026,1 hPa 0,0 l/m 0,6 km/h (0 Bft) N-NW 333 0 min 0,000 mm 0,0 UV-I 71 W/m 3,1 C 5,2 C 3,2 km/h (1 Bft) 100,00 %
15.12.2015 13:55 5,1 C 86 % 1026,1 hPa 0,0 l/m 0,2 km/h (0 Bft) N-NW 333 0 min 0,000 mm 0,0 UV-I 74 W/m 3,0 C 5,1 C 1,6 km/h (1 Bft) 99,19 %
15.12.2015 14:00 5,1 C 88 % 1026,3 hPa 0,0 l/m 0,2 km/h (0 Bft) N-NW 333 0 min 0,051 mm 0,0 UV-I 73 W/m 3,3 C 5,1 C 1,6 km/h (1 Bft) 100,00 %
15.12.2015 14:05 5,1 C 87 % 1026,3 hPa 0,0 l/m 0,6 km/h (0 Bft) N-NW 333 0 min 0,000 mm 0,0 UV-I 67 W/m 3,1 C 5,1 C 1,6 km/h (1 Bft) 99,08 %
15.12.2015 14:10 5,1 C 87 % 1026,2 hPa 0,0 l/m 0,3 km/h (0 Bft) N-NW 333 0 min 0,000 mm 0,0 UV-I 61 W/m 3,1 C 5,1 C 3,2 km/h (1 Bft) 100,00 %
15.12.2015 14:15 5,1 C 87 % 1026,1 hPa 0,0 l/m 0,8 km/h (0 Bft) N-NW 333 0 min 0,000 mm 0,0 UV-I 63 W/m 3,1 C 5,1 C 3,2 km/h (1 Bft) 98,33 %
15.12.2015 14:20 5,1 C 88 % 1026,1 hPa 0,0 l/m 0,0 km/h (0 Bft) N-NW 333 0 min 0,000 mm 0,0 UV-I 77 W/m 3,3 C 5,1 C 1,6 km/h (1 Bft) 100,00 %
15.12.2015 14:25 5,1 C 86 % 1026,1 hPa 0,0 l/m 0,0 km/h (0 Bft) N-NW 333 0 min 0,000 mm 0,0 UV-I 83 W/m 3,0 C 5,1 C 0,0 km/h (0 Bft) 98,17 %
15.12.2015 14:30 5,1 C 87 % 1026,0 hPa 0,0 l/m 0,0 km/h (0 Bft) N-NW 333 0 min 0,000 mm 0,0 UV-I 82 W/m 3,1 C 5,1 C 0,0 km/h (0 Bft) 98,25 %
15.12.2015 14:35 5,1 C 87 % 1026,0 hPa 0,0 l/m 1,1 km/h (1 Bft) N-NW 333 0 min 0,000 mm 0,0 UV-I 69 W/m 3,1 C 5,1 C 3,2 km/h (1 Bft) 100,00 %
15.12.2015 14:40 5,1 C 87 % 1026,0 hPa 0,0 l/m 0,7 km/h (0 Bft) N-NW 333 0 min 0,000 mm 0,0 UV-I 50 W/m 3,1 C 5,1 C 1,6 km/h (1 Bft) 99,22 %
15.12.2015 14:45 5,1 C 87 % 1026,0 hPa 0,0 l/m 0,4 km/h (0 Bft) N-NW 333 0 min 0,000 mm 0,0 UV-I 40 W/m 3,1 C 5,1 C 1,6 km/h (1 Bft) 98,26 %
15.12.2015 14:50 5,1 C 87 % 1026,1 hPa 0,0 l/m 0,1 km/h (0 Bft) N-NW 333 0 min 0,000 mm 0,0 UV-I 45 W/m 3,1 C 5,1 C 1,6 km/h (1 Bft) 96,43 %
15.12.2015 14:55 5,1 C 87 % 1026,0 hPa 0,0 l/m 0,0 km/h (0 Bft) N-NW 333 0 min 0,000 mm 0,0 UV-I 51 W/m 3,1 C 5,1 C 0,0 km/h (0 Bft) 97,39 %
15.12.2015 15:00 5,1 C 86 % 1026,1 hPa 0,0 l/m 0,0 km/h (0 Bft) N-NW 333 0 min 0,025 mm 0,0 UV-I 46 W/m 3,0 C 5,1 C 0,0 km/h (0 Bft) 95,31 %
15.12.2015 15:05 5,2 C 86 % 1026,2 hPa 0,0 l/m 0,0 km/h (0 Bft) N-NW 333 0 min 0,000 mm 0,0 UV-I 44 W/m 3,1 C 5,2 C 0,0 km/h (0 Bft) 94,92 %
15.12.2015 15:10 5,2 C 87 % 1026,2 hPa 0,0 l/m 0,1 km/h (0 Bft) N-NW 333 0 min 0,000 mm 0,0 UV-I 40 W/m 3,2 C 5,2 C 1,6 km/h (1 Bft) 98,29 %
15.12.2015 15:15 5,2 C 88 % 1026,2 hPa 0,0 l/m 1,2 km/h (1 Bft) N-NW 333 0 min 0,000 mm 0,0 UV-I 36 W/m 3,4 C 5,2 C 3,2 km/h (1 Bft) 96,33 %
15.12.2015 15:20 5,2 C 89 % 1026,3 hPa 0,0 l/m 1,1 km/h (1 Bft) N-NW 342 0 min 0,000 mm 0,0 UV-I 39 W/m 3,5 C 5,2 C 3,2 km/h (1 Bft) 97,52 %
15.12.2015 15:25 5,2 C 88 % 1026,2 hPa 0,0 l/m 0,1 km/h (0 Bft) N-NW 342 0 min 0,000 mm 0,0 UV-I 38 W/m 3,4 C 5,2 C 1,6 km/h (1 Bft) 99,12 %
15.12.2015 15:30 5,1 C 88 % 1026,3 hPa 0,0 l/m 0,2 km/h (0 Bft) N-NW 342 0 min 0,000 mm 0,0 UV-I 31 W/m 3,3 C 5,1 C 1,6 km/h (1 Bft) 99,13 %
15.12.2015 15:35 5,1 C 88 % 1026,3 hPa 0,0 l/m 0,0 km/h (0 Bft) N-NW 342 0 min 0,000 mm 0,0 UV-I 25 W/m 3,3 C 5,1 C 1,6 km/h (1 Bft) 98,35 %
15.12.2015 15:40 5,0 C 89 % 1026,3 hPa 0,0 l/m 0,2 km/h (0 Bft) N-NW 342 0 min 0,000 mm 0,0 UV-I 20 W/m 3,3 C 5,0 C 3,2 km/h (1 Bft) 99,10 %
15.12.2015 15:45 4,9 C 88 % 1026,3 hPa 0,0 l/m 1,5 km/h (1 Bft) N-NW 344 0 min 0,000 mm 0,0 UV-I 22 W/m 3,1 C 4,9 C 3,2 km/h (1 Bft) 99,12 %
15.12.2015 15:50 4,9 C 88 % 1026,3 hPa 0,0 l/m 0,8 km/h (0 Bft) N-NW 344 0 min 0,000 mm 0,0 UV-I 15 W/m 3,1 C 4,9 C 1,6 km/h (1 Bft) 99,21 %
15.12.2015 15:55 4,8 C 88 % 1026,3 hPa 0,0 l/m 0,6 km/h (0 Bft) N-NW 344 0 min 0,000 mm 0,0 UV-I 9 W/m 3,0 C 4,8 C 1,6 km/h (1 Bft) 99,15 %
15.12.2015 16:00 4,8 C 89 % 1026,4 hPa 0,0 l/m 0,2 km/h (0 Bft) N-NW 344 0 min 0,000 mm 0,0 UV-I 9 W/m 3,1 C 4,8 C 1,6 km/h (1 Bft) 97,58 %
15.12.2015 16:05 4,8 C 89 % 1026,4 hPa 0,0 l/m 0,0 km/h (0 Bft) N-NW 344 0 min 0,000 mm 0,0 UV-I 8 W/m 3,1 C 4,8 C 0,0 km/h (0 Bft) 99,03 %
15.12.2015 16:10 4,8 C 90 % 1026,5 hPa 0,0 l/m 0,0 km/h (0 Bft) N-NW 344 0 min 0,000 mm 0,0 UV-I 5 W/m 3,3 C 4,8 C 0,0 km/h (0 Bft) 100,00 %
15.12.2015 16:15 4,8 C 90 % 1026,5 hPa 0,0 l/m 0,0 km/h (0 Bft) N-NW 344 0 min 0,000 mm 0,0 UV-I 0 W/m 3,3 C 4,8 C 0,0 km/h (0 Bft) 98,31 %
15.12.2015 16:20 4,8 C 90 % 1026,5 hPa 0,0 l/m 0,0 km/h (0 Bft) N-NW 344 0 min 0,000 mm 0,0 UV-I 0 W/m 3,3 C 4,8 C 0,0 km/h (0 Bft) 99,13 %
15.12.2015 16:25 4,7 C 90 % 1026,5 hPa 0,0 l/m 0,2 km/h (0 Bft) N-NW 344 0 min 0,000 mm 0,0 UV-I 0 W/m 3,2 C 4,7 C 1,6 km/h (1 Bft) 100,00 %
15.12.2015 16:30 4,7 C 91 % 1026,6 hPa 0,0 l/m 0,1 km/h (0 Bft) N-NW 344 0 min 0,000 mm 0,0 UV-I 0 W/m 3,4 C 4,7 C 1,6 km/h (1 Bft) 97,39 %
15.12.2015 16:35 4,7 C 91 % 1026,7 hPa 0,0 l/m 0,6 km/h (0 Bft) N-NW 344 0 min 0,000 mm 0,0 UV-I 0 W/m 3,4 C 4,7 C 1,6 km/h (1 Bft) 100,00 %
15.12.2015 16:40 4,7 C 91 % 1026,6 hPa 0,0 l/m 0,8 km/h (0 Bft) N-NW 344 0 min 0,000 mm 0,0 UV-I 0 W/m 3,4 C 4,7 C 1,6 km/h (1 Bft) 100,00 %
15.12.2015 16:45 4,7 C 91 % 1026,7 hPa 0,0 l/m 0,2 km/h (0 Bft) N-NW 344 0 min 0,000 mm 0,0 UV-I 0 W/m 3,4 C 4,7 C 1,6 km/h (1 Bft) 100,00 %
15.12.2015 16:50 4,6 C 92 % 1026,7 hPa 0,0 l/m 0,4 km/h (0 Bft) N-NW 344 0 min 0,000 mm 0,0 UV-I 0 W/m 3,4 C 4,6 C 1,6 km/h (1 Bft) 98,20 %
15.12.2015 16:55 4,7 C 92 % 1026,7 hPa 0,0 l/m 0,5 km/h (0 Bft) N-NW 344 0 min 0,000 mm 0,0 UV-I 0 W/m 3,5 C 4,7 C 1,6 km/h (1 Bft) 97,52 %
15.12.2015 17:00 4,6 C 93 % 1026,7 hPa 0,0 l/m 0,8 km/h (0 Bft) N-NW 344 0 min 0,000 mm 0,0 UV-I 0 W/m 3,6 C 4,6 C 3,2 km/h (1 Bft) 97,25 %
15.12.2015 17:05 4,4 C 92 % 1026,8 hPa 0,0 l/m 1,5 km/h (1 Bft) NO 44 0 min 0,000 mm 0,0 UV-I 0 W/m 3,2 C 4,4 C 3,2 km/h (1 Bft) 97,62 %
15.12.2015 17:10 4,4 C 93 % 1026,8 hPa 0,0 l/m 2,0 km/h (1 Bft) O 86 0 min 0,000 mm 0,0 UV-I 0 W/m 3,4 C 4,4 C 3,2 km/h (1 Bft) 98,21 %
15.12.2015 17:15 4,4 C 93 % 1027,0 hPa 0,0 l/m 0,5 km/h (0 Bft) O 88 0 min 0,000 mm 0,0 UV-I 0 W/m 3,4 C 4,4 C 3,2 km/h (1 Bft) 96,75 %
15.12.2015 17:20 4,4 C 93 % 1027,0 hPa 0,0 l/m 2,7 km/h (1 Bft) S-SO 148 0 min 0,000 mm 0,0 UV-I 0 W/m 3,4 C 4,4 C 4,8 km/h (1 Bft) 96,43 %
15.12.2015 17:25 4,5 C 92 % 1026,9 hPa 0,0 l/m 1,2 km/h (1 Bft) S-SO 148 0 min 0,000 mm 0,0 UV-I 0 W/m 3,3 C 4,5 C 3,2 km/h (1 Bft) 97,46 %
15.12.2015 17:30 4,6 C 92 % 1026,9 hPa 0,0 l/m 0,4 km/h (0 Bft) S-SO 148 0 min 0,000 mm 0,0 UV-I 0 W/m 3,4 C 4,6 C 1,6 km/h (1 Bft) 98,29 %
15.12.2015 17:35 4,6 C 92 % 1027,0 hPa 0,0 l/m 1,5 km/h (1 Bft) S-SO 148 0 min 0,000 mm 0,0 UV-I 0 W/m 3,4 C 4,6 C 3,2 km/h (1 Bft) 99,15 %
15.12.2015 17:40 4,6 C 92 % 1026,9 hPa 0,0 l/m 3,4 km/h (1 Bft) S-SO 165 0 min 0,000 mm 0,0 UV-I 0 W/m 3,4 C 4,6 C 6,4 km/h (2 Bft) 99,13 %
15.12.2015 17:45 4,6 C 92 % 1027,0 hPa 0,0 l/m 3,5 km/h (1 Bft) S-SO 168 0 min 0,000 mm 0,0 UV-I 0 W/m 3,4 C 4,6 C 6,4 km/h (2 Bft) 98,26 %
15.12.2015 17:50 4,6 C 92 % 1027,1 hPa 0,0 l/m 3,0 km/h (1 Bft) S 173 0 min 0,000 mm 0,0 UV-I 0 W/m 3,4 C 4,6 C 6,4 km/h (2 Bft) 100,00 %
15.12.2015 17:55 4,6 C 92 % 1027,2 hPa 0,0 l/m 1,0 km/h (0 Bft) S 173 0 min 0,000 mm 0,0 UV-I 0 W/m 3,4 C 4,6 C 3,2 km/h (1 Bft) 99,21 %
15.12.2015 18:00 4,6 C 92 % 1027,2 hPa 0,0 l/m 0,8 km/h (0 Bft) S 173 0 min 0,000 mm 0,0 UV-I 0 W/m 3,4 C 4,6 C 3,2 km/h (1 Bft) 100,00 %
15.12.2015 18:05 4,6 C 92 % 1027,2 hPa 0,0 l/m 0,2 km/h (0 Bft) S 173 0 min 0,000 mm 0,0 UV-I 0 W/m 3,4 C 4,6 C 1,6 km/h (1 Bft) 99,08 %
15.12.2015 18:10 4,6 C 92 % 1027,3 hPa 0,0 l/m 0,0 km/h (0 Bft) S 173 0 min 0,000 mm 0,0 UV-I 0 W/m 3,4 C 4,6 C 0,0 km/h (0 Bft) 99,17 %
15.12.2015 18:15 4,6 C 92 % 1027,3 hPa 0,0 l/m 0,0 km/h (0 Bft) S 173 0 min 0,000 mm 0,0 UV-I 0 W/m 3,4 C 4,6 C 1,6 km/h (1 Bft) 100,00 %
15.12.2015 18:20 4,6 C 92 % 1027,3 hPa 0,0 l/m 0,0 km/h (0 Bft) S 173 0 min 0,000 mm 0,0 UV-I 0 W/m 3,4 C 4,6 C 0,0 km/h (0 Bft) 99,08 %
15.12.2015 18:25 4,6 C 92 % 1027,2 hPa 0,0 l/m 2,0 km/h (1 Bft) S 173 0 min 0,000 mm 0,0 UV-I 0 W/m 3,4 C 4,6 C 3,2 km/h (1 Bft) 99,21 %
15.12.2015 18:30 4,6 C 92 % 1027,2 hPa 0,0 l/m 2,3 km/h (1 Bft) S 172 0 min 0,000 mm 0,0 UV-I 0 W/m 3,4 C 4,6 C 4,8 km/h (1 Bft) 98,31 %
15.12.2015 18:35 4,6 C 91 % 1027,3 hPa 0,0 l/m 2,8 km/h (1 Bft) S 184 0 min 0,000 mm 0,0 UV-I 0 W/m 3,3 C 4,6 C 4,8 km/h (1 Bft) 100,00 %
15.12.2015 18:40 4,7 C 91 % 1027,2 hPa 0,0 l/m 4,1 km/h (1 Bft) S 182 0 min 0,000 mm 0,0 UV-I 0 W/m 3,4 C 4,7 C 6,4 km/h (2 Bft) 100,00 %
15.12.2015 18:45 4,7 C 91 % 1027,3 hPa 0,0 l/m 2,0 km/h (1 Bft) S 182 0 min 0,000 mm 0,0 UV-I 0 W/m 3,4 C 4,7 C 6,4 km/h (2 Bft) 97,62 %
15.12.2015 18:50 4,7 C 91 % 1027,3 hPa 0,0 l/m 0,6 km/h (0 Bft) S 182 0 min 0,000 mm 0,0 UV-I 0 W/m 3,4 C 4,7 C 1,6 km/h (1 Bft) 99,15 %
15.12.2015 18:55 4,7 C 91 % 1027,3 hPa 0,0 l/m 2,1 km/h (1 Bft) S 182 0 min 0,000 mm 0,0 UV-I 0 W/m 3,4 C 4,7 C 3,2 km/h (1 Bft) 99,10 %
15.12.2015 19:00 4,7 C 92 % 1027,4 hPa 0,0 l/m 1,4 km/h (1 Bft) S 181 0 min 0,000 mm 0,0 UV-I 0 W/m 3,5 C 4,7 C 3,2 km/h (1 Bft) 95,76 %
15.12.2015 19:05 4,7 C 92 % 1027,5 hPa 0,0 l/m 3,2 km/h (1 Bft) S 181 0 min 0,000 mm 0,0 UV-I 0 W/m 3,5 C 4,7 C 4,8 km/h (1 Bft) 98,26 %
15.12.2015 19:10 4,7 C 92 % 1027,4 hPa 0,0 l/m 2,0 km/h (1 Bft) S 175 0 min 0,000 mm 0,0 UV-I 0 W/m 3,5 C 4,7 C 4,8 km/h (1 Bft) 97,37 %
15.12.2015 19:15 4,6 C 93 % 1027,5 hPa 0,0 l/m 0,3 km/h (0 Bft) S 175 0 min 0,000 mm 0,0 UV-I 0 W/m 3,6 C 4,6 C 1,6 km/h (1 Bft) 96,61 %
15.12.2015 19:20 4,6 C 93 % 1027,5 hPa 0,0 l/m 0,1 km/h (0 Bft) S 175 0 min 0,000 mm 0,0 UV-I 0 W/m 3,6 C 4,6 C 1,6 km/h (1 Bft) 96,75 %
15.12.2015 19:25 4,6 C 93 % 1027,5 hPa 0,0 l/m 0,3 km/h (0 Bft) S 175 0 min 0,000 mm 0,0 UV-I 0 W/m 3,6 C 4,6 C 1,6 km/h (1 Bft) 96,52 %
15.12.2015 19:30 4,7 C 93 % 1027,6 hPa 0,0 l/m 0,0 km/h (0 Bft) S 175 0 min 0,000 mm 0,0 UV-I 0 W/m 3,7 C 4,7 C 0,0 km/h (0 Bft) 98,31 %
15.12.2015 19:35 4,6 C 93 % 1027,6 hPa 0,0 l/m 0,3 km/h (0 Bft) S 175 0 min 0,000 mm 0,0 UV-I 0 W/m 3,6 C 4,6 C 1,6 km/h (1 Bft) 99,10 %
15.12.2015 19:40 4,6 C 93 % 1027,6 hPa 0,0 l/m 0,2 km/h (0 Bft) S 175 0 min 0,000 mm 0,0 UV-I 0 W/m 3,6 C 4,6 C 1,6 km/h (1 Bft) 99,11 %
15.12.2015 19:45 4,4 C 94 % 1027,7 hPa 0,0 l/m 1,0 km/h (0 Bft) S 175 0 min 0,000 mm 0,0 UV-I 0 W/m 3,5 C 4,4 C 3,2 km/h (1 Bft) 96,21 %
15.12.2015 19:50 4,4 C 94 % 1027,6 hPa 0,0 l/m 0,0 km/h (0 Bft) S 175 0 min 0,000 mm 0,0 UV-I 0 W/m 3,5 C 4,4 C 1,6 km/h (1 Bft) 100,00 %
15.12.2015 19:55 4,4 C 94 % 1027,7 hPa 0,0 l/m 0,0 km/h (0 Bft) S 175 0 min 0,000 mm 0,0 UV-I 0 W/m 3,5 C 4,4 C 1,6 km/h (1 Bft) 100,00 %
15.12.2015 20:00 4,4 C 94 % 1027,7 hPa 0,0 l/m 0,0 km/h (0 Bft) S 175 0 min 0,000 mm 0,0 UV-I 0 W/m 3,5 C 4,4 C 0,0 km/h (0 Bft) 99,08 %
15.12.2015 20:05 4,4 C 94 % 1027,7 hPa 0,0 l/m 0,8 km/h (0 Bft) S 175 0 min 0,000 mm 0,0 UV-I 0 W/m 3,5 C 4,4 C 3,2 km/h (1 Bft) 100,00 %
15.12.2015 20:10 4,4 C 94 % 1027,7 hPa 0,0 l/m 1,4 km/h (1 Bft) S 175 0 min 0,000 mm 0,0 UV-I 0 W/m 3,5 C 4,4 C 3,2 km/h (1 Bft) 97,32 %
15.12.2015 20:15 4,4 C 95 % 1027,7 hPa 0,0 l/m 0,4 km/h (0 Bft) S 175 0 min 0,000 mm 0,0 UV-I 0 W/m 3,7 C 4,4 C 1,6 km/h (1 Bft) 100,00 %
15.12.2015 20:20 4,4 C 95 % 1027,9 hPa 0,0 l/m 0,1 km/h (0 Bft) S 175 0 min 0,000 mm 0,0 UV-I 0 W/m 3,7 C 4,4 C 1,6 km/h (1 Bft) 100,00 %
15.12.2015 20:25 4,3 C 95 % 1027,9 hPa 0,0 l/m 0,0 km/h (0 Bft) S 175 0 min 0,000 mm 0,0 UV-I 0 W/m 3,6 C 4,3 C 0,0 km/h (0 Bft) 99,19 %
15.12.2015 20:30 4,3 C 95 % 1027,8 hPa 0,0 l/m 0,5 km/h (0 Bft) S 175 0 min 0,000 mm 0,0 UV-I 0 W/m 3,6 C 4,3 C 1,6 km/h (1 Bft) 99,10 %
15.12.2015 20:35 4,3 C 96 % 1027,9 hPa 0,0 l/m 0,0 km/h (0 Bft) S 175 0 min 0,000 mm 0,0 UV-I 0 W/m 3,7 C 4,3 C 0,0 km/h (0 Bft) 99,17 %
15.12.2015 20:40 4,3 C 96 % 1028,0 hPa 0,0 l/m 0,1 km/h (0 Bft) S 175 0 min 0,000 mm 0,0 UV-I 0 W/m 3,7 C 4,3 C 1,6 km/h (1 Bft) 99,19 %
15.12.2015 20:45 4,3 C 96 % 1028,0 hPa 0,0 l/m 0,0 km/h (0 Bft) S 175 0 min 0,000 mm 0,0 UV-I 0 W/m 3,7 C 4,3 C 1,6 km/h (1 Bft) 100,00 %
15.12.2015 20:50 4,3 C 96 % 1028,2 hPa 0,0 l/m 0,9 km/h (0 Bft) S 175 0 min 0,000 mm 0,0 UV-I 0 W/m 3,7 C 4,3 C 3,2 km/h (1 Bft) 98,35 %
15.12.2015 20:55 4,3 C 96 % 1028,2 hPa 0,0 l/m 1,0 km/h (0 Bft) S 175 0 min 0,000 mm 0,0 UV-I 0 W/m 3,7 C 4,3 C 3,2 km/h (1 Bft) 100,00 %
15.12.2015 21:00 4,3 C 96 % 1028,2 hPa 0,0 l/m 0,5 km/h (0 Bft) S 175 0 min 0,000 mm 0,0 UV-I 0 W/m 3,7 C 4,3 C 1,6 km/h (1 Bft) 99,15 %
15.12.2015 21:05 4,3 C 96 % 1028,1 hPa 0,0 l/m 0,8 km/h (0 Bft) S 175 0 min 0,000 mm 0,0 UV-I 0 W/m 3,7 C 4,3 C 1,6 km/h (1 Bft) 96,61 %
15.12.2015 21:10 4,4 C 96 % 1028,0 hPa 0,0 l/m 0,1 km/h (0 Bft) S 175 0 min 0,000 mm 0,0 UV-I 0 W/m 3,8 C 4,4 C 1,6 km/h (1 Bft) 97,14 %
15.12.2015 21:15 4,4 C 96 % 1028,0 hPa 0,0 l/m 0,0 km/h (0 Bft) S 175 0 min 0,000 mm 0,0 UV-I 0 W/m 3,8 C 4,4 C 0,0 km/h (0 Bft) 95,97 %
15.12.2015 21:20 4,4 C 96 % 1027,9 hPa 0,0 l/m 0,0 km/h (0 Bft) S 175 0 min 0,000 mm 0,0 UV-I 0 W/m 3,8 C 4,4 C 1,6 km/h (1 Bft) 97,46 %
15.12.2015 21:25 4,4 C 95 % 1027,9 hPa 0,0 l/m 0,1 km/h (0 Bft) S 175 0 min 0,000 mm 0,0 UV-I 0 W/m 3,7 C 4,4 C 1,6 km/h (1 Bft) 97,62 %
15.12.2015 21:30 4,4 C 96 % 1027,9 hPa 0,0 l/m 0,0 km/h (0 Bft) S 175 0 min 0,000 mm 0,0 UV-I 0 W/m 3,8 C 4,4 C 1,6 km/h (1 Bft) 97,46 %
15.12.2015 21:35 4,3 C 96 % 1028,0 hPa 0,0 l/m 1,6 km/h (1 Bft) S 180 0 min 0,000 mm 0,0 UV-I 0 W/m 3,7 C 4,3 C 3,2 km/h (1 Bft) 98,25 %
15.12.2015 21:40 4,4 C 96 % 1028,0 hPa 0,0 l/m 1,6 km/h (1 Bft) S 180 0 min 0,000 mm 0,0 UV-I 0 W/m 3,8 C 4,4 C 3,2 km/h (1 Bft) 97,37 %
15.12.2015 21:45 4,4 C 96 % 1028,1 hPa 0,0 l/m 1,6 km/h (1 Bft) S 180 0 min 0,000 mm 0,0 UV-I 0 W/m 3,8 C 4,4 C 3,2 km/h (1 Bft) 98,25 %
15.12.2015 21:50 4,4 C 96 % 1028,0 hPa 0,0 l/m 0,0 km/h (0 Bft) S 175 0 min 0,000 mm 0,0 UV-I 0 W/m 3,8 C 4,4 C 1,6 km/h (1 Bft) 98,06 %
15.12.2015 21:55 4,4 C 96 % 1028,0 hPa 0,0 l/m 0,1 km/h (0 Bft) S 175 0 min 0,000 mm 0,0 UV-I 0 W/m 3,8 C 4,4 C 1,6 km/h (1 Bft) 100,00 %
15.12.2015 22:00 4,4 C 96 % 1028,1 hPa 0,0 l/m 0,4 km/h (0 Bft) S 175 0 min 0,000 mm 0,0 UV-I 0 W/m 3,8 C 4,4 C 1,6 km/h (1 Bft) 99,11 %
15.12.2015 22:05 4,5 C 96 % 1028,1 hPa 0,0 l/m 0,1 km/h (0 Bft) S 175 0 min 0,000 mm 0,0 UV-I 0 W/m 3,9 C 4,5 C 1,6 km/h (1 Bft) 98,44 %
15.12.2015 22:10 4,5 C 96 % 1028,1 hPa 0,0 l/m 1,2 km/h (1 Bft) S 175 0 min 0,000 mm 0,0 UV-I 0 W/m 3,9 C 4,5 C 3,2 km/h (1 Bft) 100,00 %
15.12.2015 22:15 4,6 C 95 % 1028,1 hPa 0,0 l/m 0,2 km/h (0 Bft) S 175 0 min 0,000 mm 0,0 UV-I 0 W/m 3,9 C 4,6 C 1,6 km/h (1 Bft) 99,13 %
15.12.2015 22:20 4,6 C 95 % 1028,1 hPa 0,0 l/m 1,0 km/h (0 Bft) S 175 0 min 0,000 mm 0,0 UV-I 0 W/m 3,9 C 4,6 C 3,2 km/h (1 Bft) 100,00 %
15.12.2015 22:25 4,6 C 95 % 1028,1 hPa 0,0 l/m 0,2 km/h (0 Bft) S 175 0 min 0,000 mm 0,0 UV-I 0 W/m 3,9 C 4,6 C 1,6 km/h (1 Bft) 99,11 %
15.12.2015 22:30 4,6 C 95 % 1028,1 hPa 0,0 l/m 0,0 km/h (0 Bft) S 175 0 min 0,000 mm 0,0 UV-I 0 W/m 3,9 C 4,6 C 0,0 km/h (0 Bft) 100,00 %
15.12.2015 22:35 4,6 C 95 % 1028,1 hPa 0,0 l/m 0,0 km/h (0 Bft) S 175 0 min 0,000 mm 0,0 UV-I 0 W/m 3,9 C 4,6 C 0,0 km/h (0 Bft) 100,00 %
15.12.2015 22:40 4,6 C 95 % 1028,2 hPa 0,0 l/m 0,0 km/h (0 Bft) S 175 0 min 0,000 mm 0,0 UV-I 0 W/m 3,9 C 4,6 C 0,0 km/h (0 Bft) 99,06 %
15.12.2015 22:45 4,6 C 96 % 1028,2 hPa 0,0 l/m 0,0 km/h (0 Bft) S 175 0 min 0,000 mm 0,0 UV-I 0 W/m 4,0 C 4,6 C 0,0 km/h (0 Bft) 100,00 %
15.12.2015 22:50 4,5 C 96 % 1028,2 hPa 0,0 l/m 0,9 km/h (0 Bft) S 175 0 min 0,000 mm 0,0 UV-I 0 W/m 3,9 C 4,5 C 3,2 km/h (1 Bft) 100,00 %
15.12.2015 22:55 4,5 C 96 % 1028,2 hPa 0,0 l/m 0,5 km/h (0 Bft) S 175 0 min 0,000 mm 0,0 UV-I 0 W/m 3,9 C 4,5 C 1,6 km/h (1 Bft) 98,35 %
15.12.2015 23:00 4,4 C 96 % 1028,2 hPa 0,0 l/m 0,4 km/h (0 Bft) S 175 0 min 0,000 mm 0,0 UV-I 0 W/m 3,8 C 4,4 C 1,6 km/h (1 Bft) 99,19 %
15.12.2015 23:05 4,4 C 96 % 1028,2 hPa 0,0 l/m 0,4 km/h (0 Bft) S 175 0 min 0,000 mm 0,0 UV-I 0 W/m 3,8 C 4,4 C 1,6 km/h (1 Bft) 96,52 %
15.12.2015 23:10 4,4 C 96 % 1028,2 hPa 0,0 l/m 2,3 km/h (1 Bft) S 175 0 min 0,000 mm 0,0 UV-I 0 W/m 3,8 C 4,4 C 3,2 km/h (1 Bft) 96,91 %
15.12.2015 23:15 4,4 C 96 % 1028,2 hPa 0,0 l/m 0,8 km/h (0 Bft) S 175 0 min 0,000 mm 0,0 UV-I 0 W/m 3,8 C 4,4 C 3,2 km/h (1 Bft) 96,97 %
15.12.2015 23:20 4,4 C 96 % 1028,2 hPa 0,0 l/m 0,7 km/h (0 Bft) S 175 0 min 0,000 mm 0,0 UV-I 0 W/m 3,8 C 4,4 C 1,6 km/h (1 Bft) 97,52 %
15.12.2015 23:25 4,3 C 96 % 1028,3 hPa 0,0 l/m 0,0 km/h (0 Bft) S 175 0 min 0,000 mm 0,0 UV-I 0 W/m 3,7 C 4,3 C 1,6 km/h (1 Bft) 97,39 %
15.12.2015 23:30 4,3 C 96 % 1028,4 hPa 0,0 l/m 0,0 km/h (0 Bft) S 175 0 min 0,000 mm 0,0 UV-I 0 W/m 3,7 C 4,3 C 0,0 km/h (0 Bft) 97,44 %
15.12.2015 23:35 4,2 C 96 % 1028,4 hPa 0,0 l/m 0,8 km/h (0 Bft) S 175 0 min 0,000 mm 0,0 UV-I 0 W/m 3,6 C 4,2 C 3,2 km/h (1 Bft) 96,69 %
15.12.2015 23:40 4,1 C 96 % 1028,4 hPa 0,0 l/m 1,5 km/h (1 Bft) S 175 0 min 0,000 mm 0,0 UV-I 0 W/m 3,5 C 4,1 C 3,2 km/h (1 Bft) 99,15 %
15.12.2015 23:45 4,1 C 96 % 1028,4 hPa 0,0 l/m 0,3 km/h (0 Bft) S 175 0 min 0,000 mm 0,0 UV-I 0 W/m 3,5 C 4,1 C 1,6 km/h (1 Bft) 98,21 %
15.12.2015 23:50 4,0 C 96 % 1028,4 hPa 0,0 l/m 0,8 km/h (0 Bft) S 175 0 min 0,000 mm 0,0 UV-I 0 W/m 3,4 C 4,0 C 3,2 km/h (1 Bft) 100,00 %
15.12.2015 23:55 4,1 C 96 % 1028,4 hPa 0,0 l/m 1,4 km/h (1 Bft) S 175 0 min 0,000 mm 0,0 UV-I 0 W/m 3,5 C 4,1 C 3,2 km/h (1 Bft) 98,41 %
_ Min-Zeit 06:50 13:25 07:15 - 00:35 - - - - - - 06:55 07:15 00:35 10:50
Minimum _ 2,0 C 85 % 1025,6 hPa - 0,0 km/h (0 Bft) - - - - - - 1,1 C 0,2 C 0,0 km/h (0 Bft) 91,49 %
_ Max-Zeit 13:30 20:35 23:30 00:00 07:15 - - 09:20 12:00 11:10 12:15 22:45 13:30 07:15 00:30
Maximum _ 5,3 C 96 % 1028,4 hPa 0,0 l/m 8,4 km/h
SO (2 Bft)
- - 5 min 0,051 mm 0,5 UV-I 191 W/m 4,0 C 5,3 C 14,5 km/h
O-SO (3 Bft)
100,00 %
Durchschnitt _ 3,7 C 92 % 1026,7 hPa #0,0 l/m 1,3 km/h (1 Bft) S - #35 min. #0,254 mm 0,4 UV-I 86 W/m 2,5 C 3,7 C 3,4 km/h (1 Bft) 98,41 %